Temperature
32 32 32 33 34 34 34 33 33 34 35 34 33 33 33 33 32 31 30 29 28 27 26 25 24 23 22 21 21 20 20 20 20 19 19 19 19 19 19 19 19 18 18 18
32 32 34 35 35 34 34 33 33 34 34 34 33 34 34 33 33 32 31 29 28 27 26 25 24 23 22 21 21 20 20 20 20 20 20 19 19 19 19 19 19 18 18 18
32 33 34 34 34 33 33 33 33 33 34 34 33 33 33 34 33 32 31 30 29 28 26 25 24 24 23 22 21 21 20 20 20 20 19 19 19 19 19 19 19 19 19 19
32 34 34 34 34 34 33 34 34 33 32 32 33 31 32 33 33 32 31 31 30 28 27 25 24 24 23 22 21 21 20 20 20 20 19 19 19 19 19 19 19 19 19 19
32 33 33 33 34 34 34 34 34 33 32 31 32 31 32 33 32 32 32 31 30 29 27 26 25 24 23 22 21 21 20 20 20 20 20 19 19 19 19 19 19 19 19 19
33 34 34 34 34 35 34 34 33 33 32 30 31 31 31 32 32 32 32 31 30 29 28 27 25 24 24 23 22 21 20 20 20 20 20 19 19 19 19 19 19 19 19 19
32 33 34 34 33 34 34 32 31 30 30 30 32 32 32 33 33 32 32 31 30 29 28 27 26 24 24 23 22 22 21 20 20 20 20 19 19 19 19 19 19 19 19 19
30 31 33 34 33 32 33 32 30 29 30 31 32 31 32 33 33 32 32 32 31 30 29 27 26 25 24 23 22 22 21 20 20 20 20 19 19 19 19 19 19 19 19 19
31 31 33 34 34 33 32 32 33 31 31 30 31 31 32 33 32 32 32 31 31 30 29 28 26 25 24 23 23 22 22 21 20 20 20 19 19 19 19 19 19 19 19 19
31 30 32 33 33 33 33 32 31 31 29 29 30 30 31 31 31 32 31 31 30 30 29 28 26 25 24 23 23 22 21 21 20 19 19 19 19 19 19 18 18 19 19 19
31 30 31 32 31 31 31 31 31 31 30 29 29 30 32 30 30 31 31 30 29 29 28 27 26 25 24 23 23 22 21 21 20 20 19 19 19 19 19 18 18 18 18 18
31 30 29 30 32 33 32 32 31 30 29 30 29 30 32 32 31 31 30 29 29 28 27 27 26 25 24 23 22 22 21 20 20 20 19 19 19 19 19 18 18 18 18 18
29 28 27 28 30 31 31 32 32 31 31 30 29 29 31 31 30 30 29 29 28 27 27 26 25 24 24 23 22 22 21 20 20 19 19 19 19 18 18 18 18 18 18 18
28 28 27 27 29 30 30 31 31 30 30 30 30 29 30 29 29 29 29 28 27 26 26 25 24 24 23 23 22 21 21 20 20 19 19 19 18 18 18 18 18 18 18 18
28 27 27 28 29 30 30 30 31 30 30 30 30 29 29 29 29 29 28 27 26 26 25 24 24 23 23 22 22 21 20 20 19 19 19 18 18 18 18 18 18 18 17 17
27 27 27 27 29 29 29 30 30 30 30 30 30 29 30 30 29 28 27 27 26 25 24 24 23 22 22 21 21 20 20 19 19 19 18 18 18 18 18 18 18 17 17 17
27 26 25 26 27 28 27 29 30 30 30 30 29 29 29 29 28 27 27 26 25 24 24 23 22 22 21 21 20 20 19 19 19 18 18 18 18 18 18 17 17 17 17 17
25 24 24 25 25 24 27 30 30 30 30 30 29 29 29 28 27 26 26 25 25 24 23 22 22 21 21 20 20 19 19 19 18 18 18 17 17 17 17 17 17 17 17 16
26 24 24 24 24 25 27 29 29 29 29 30 29 28 28 27 26 25 25 24 23 23 22 21 21 21 20 20 19 19 19 18 18 17 17 17 17 17 17 16 16 16 16 16
25 24 23 23 23 24 26 28 28 28 27 28 28 27 27 27 26 25 24 23 22 22 21 21 20 20 20 19 19 18 18 18 17 17 17 17 17 16 16 16 16 16 16 16
24 23 23 23 23 24 26 27 27 25 25 26 26 26 26 25 25 23 22 22 21 20 20 20 19 19 19 18 18 18 17 17 17 17 16 16 16 16 16 16 16 16 15 15
23 23 23 23 23 23 25 25 24 24 24 24 24 24 24 23 23 22 21 21 20 20 19 19 19 18 18 18 17 17 16 16 16 16 16 16 16 15 15 15 15 15 15 15
23 23 24 23 23 23 23 23 23 23 23 23 23 22 22 22 22 21 20 20 19 19 19 18 18 17 17 17 16 16 16 16 15 15 15 15 15 15 15 15 15 15 14 14
23 23 23 22 22 23 22 22 22 22 22 22 22 21 21 21 21 20 20 19 18 18 18 17 17 16 16 16 16 15 15 15 15 15 15 15 15 14 14 14 14 14 14 14
21 21 21 20 21 21 21 21 21 21 21 21 21 21 20 20 20 19 18 18 18 17 17 16 16 16 15 15 15 15 15 14 14 14 14 14 14 14 14 14 14 14 14 14
21 20 20 19 20 20 20 20 19 20 20 20 20 19 19 19 19 18 18 17 17 16 16 16 15 15 15 14 14 14 14 14 14 14 14 14 13 13 13 13 13 13 13 13
Wind_Speed
14 15 15 15 14 12 12 10 8 5 4 6 8 10 12 13 13 14 14 13 13 14 14 14 13 13 13 11 10 9 8 7 5 4 5 4 4 4 4 4 6 7 6 6
16 19 18 15 13 12 12 11 11 6 3 4 6 7 11 12 14 14 15 15 15 15 15 14 13 13 13 12 11 10 8 8 7 5 4 4 4 3 4 3 5 7 6 6
20 16 14 15 15 14 14 13 11 8 6 8 8 9 10 12 12 12 13 15 15 16 16 16 14 12 13 13 12 11 9 9 8 7 5 4 3 2 3 3 4 4 5 6
19 18 16 16 16 15 13 12 10 9 9 9 10 7 9 11 12 12 12 12 14 15 16 16 16 14 14 14 13 10 9 8 8 7 7 7 6 5 4 4 4 5 5 4
18 17 18 18 16 14 13 10 10 10 11 12 12 10 8 9 11 12 14 13 12 14 16 17 17 15 14 15 14 12 10 8 8 7 6 6 5 5 4 4 5 5 5 5
19 16 17 16 14 14 12 12 11 11 11 13 14 14 9 8 11 11 13 14 13 14 16 16 16 14 13 13 13 13 11 9 8 8 6 6 5 4 4 5 5 5 4 5
18 19 17 15 16 14 13 12 10 11 11 12 12 12 7 6 8 9 10 12 14 14 14 15 15 15 14 13 13 13 13 10 9 8 7 6 5 4 4 4 5 5 4 4
16 16 17 16 15 13 13 14 12 11 11 10 11 10 6 7 8 8 8 10 11 13 14 15 15 14 13 13 13 12 13 11 10 9 7 6 5 5 4 4 4 4 3 3
12 13 13 14 14 15 15 15 14 13 15 14 9 7 5 7 8 9 9 8 10 11 12 13 14 14 13 13 12 12 12 11 10 9 7 5 5 5 4 4 4 2 2 3
14 12 12 13 13 16 16 13 10 11 10 12 12 10 6 7 9 9 8 7 8 9 10 11 12 12 12 11 10 10 11 10 9 9 8 7 6 5 4 3 3 2 2 1
15 14 13 12 14 15 14 15 12 10 11 11 11 7 2 5 6 8 9 8 7 7 7 10 10 11 10 11 11 10 10 10 10 10 8 7 7 6 5 4 3 3 3 2
11 12 13 15 15 14 15 16 15 12 11 11 12 7 2 3 5 6 8 9 7 6 5 6 9 9 10 9 10 9 9 9 9 9 8 8 7 7 6 5 4 3 3 3
7 8 11 14 14 14 14 15 15 15 13 13 13 8 2 2 4 5 7 9 8 7 6 5 8 8 7 8 7 8 8 9 8 8 8 8 7 7 6 5 5 4 4 3
6 11 13 16 13 11 14 16 16 16 14 14 13 9 7 5 5 6 6 7 8 6 6 5 5 6 6 5 6 6 7 7 7 7 7 7 7 7 6 6 5 5 5 4
9 14 16 19 19 17 17 16 16 17 17 16 12 10 8 7 6 6 7 6 7 6 5 5 5 5 5 5 5 5 6 6 6 6 6 6 6 5 5 5 5 5 4 5
10 12 15 18 19 19 20 20 18 17 16 16 14 12 8 5 4 5 5 6 6 5 5 5 5 5 5 5 5 5 5 6 6 6 6 6 5 5 5 5 5 5 4 4
9 10 14 16 17 18 21 21 19 16 16 15 14 9 5 4 4 5 5 5 5 5 4 4 4 4 4 5 5 6 5 5 6 5 5 5 5 5 4 5 5 5 5 4
11 10 9 14 15 19 16 15 15 14 13 10 6 6 6 4 5 4 4 4 4 4 4 4 3 3 4 4 5 5 5 5 5 5 4 4 4 4 4 4 4 4 4 4
13 10 10 12 17 18 16 13 12 12 11 8 6 6 5 4 4 4 4 5 4 4 4 3 2 2 3 4 4 4 5 6 6 5 5 4 4 4 4 4 4 4 3 4
14 11 12 13 15 16 11 8 8 10 10 5 4 3 4 5 6 4 5 5 5 5 3 2 2 2 3 4 4 4 5 4 4 4 4 4 4 4 4 4 3 3 3 3
13 14 16 17 17 13 7 6 6 9 6 1 2 2 3 2 1 5 6 6 5 5 4 3 2 2 3 4 3 3 3 3 3 3 3 3 3 3 3 3 3 3 3 2
12 12 14 15 16 12 4 5 5 3 4 4 4 4 4 5 6 6 5 5 5 5 4 3 3 3 3 3 3 3 2 2 2 2 2 2 2 2 2 2 2 2 3 3
10 10 8 8 6 1 3 2 2 2 3 3 3 3 3 4 4 4 3 4 4 4 4 4 4 4 3 3 3 3 2 2 2 2 2 2 2 2 2 2 2 2 2 3
8 7 7 6 4 2 2 2 2 2 3 2 2 1 2 2 2 3 3 3 3 3 4 4 4 4 3 3 3 3 2 2 2 2 2 2 2 2 3 2 1 1 1 1
9 6 6 8 6 5 4 3 3 3 3 3 2 1 1 1 2 2 2 3 3 4 4 3 4 4 4 4 3 3 3 3 2 2 2 2 2 3 2 1 0 1 1 1
10 8 8 8 5 5 5 4 5 5 5 3 1 2 1 0 2 1 2 2 3 4 3 3 3 3 4 4 3 4 4 3 2 2 2 2 2 2 2 2 1 3 2 4
Wind_Direction
227 233 241 243 242 249 264 274 266 245 208 223 205 191 179 175 179 177 172 171 175 174 169 164 164 161 155 152 155 160 161 158 160 163 172 178 175 177 174 169 157 169 185 184
235 234 244 256 261 258 257 262 262 257 252 261 247 212 186 187 188 182 177 176 183 176 170 165 167 166 160 159 162 164 167 166 174 174 178 178 175 181 179 169 154 177 187 183
236 241 239 246 252 253 253 250 259 270 266 253 251 230 205 200 191 185 183 178 180 178 173 169 172 172 167 165 168 174 169 170 181 175 180 187 170 189 171 166 163 182 184 186
241 247 249 246 249 252 256 253 258 263 262 263 251 244 216 204 189 183 183 182 184 180 174 173 174 176 175 170 170 164 165 169 178 182 191 188 183 188 188 174 170 184 184 187
244 244 247 247 249 253 265 267 263 263 267 270 269 260 233 201 194 191 185 187 187 180 177 175 177 178 178 174 172 168 165 169 175 187 195 198 193 188 183 174 171 183 184 186
253 251 250 252 254 251 258 268 263 260 259 255 254 259 249 215 199 192 185 181 186 183 179 174 175 172 177 174 171 170 167 172 176 184 191 199 201 189 182 181 175 189 186 187
248 248 246 248 250 243 240 249 255 246 242 249 247 250 245 207 184 183 184 178 181 178 172 169 171 173 176 175 173 170 168 175 179 185 191 192 199 191 195 194 187 202 191 182
240 239 233 236 242 246 239 241 246 258 262 263 247 248 231 177 163 167 174 168 169 169 169 169 170 170 173 175 173 171 169 174 180 186 190 190 192 201 200 210 214 201 205 183
256 248 233 230 236 240 245 245 249 256 265 273 267 259 240 159 163 167 172 166 163 166 170 169 169 169 171 175 173 173 167 171 178 183 180 182 186 199 196 191 218 219 204 200
261 273 257 235 231 232 242 250 260 252 259 267 267 246 228 176 172 167 160 156 155 164 168 161 160 166 172 172 168 164 159 167 172 178 183 192 192 190 191 205 190 218 229 219
257 263 261 244 234 233 229 233 246 262 264 264 269 266 226 169 170 165 157 152 148 149 155 159 159 163 164 169 168 168 165 167 175 181 185 185 180 182 185 200 191 198 212 211
249 257 262 255 243 240 242 239 234 241 251 262 272 266 230 143 152 156 145 135 129 119 126 151 151 154 161 166 171 170 173 176 179 178 178 180 175 177 182 188 189 194 197 206
272 256 257 256 247 231 237 238 242 247 251 251 258 258 222 130 116 131 138 131 122 119 118 127 141 147 155 163 168 172 175 179 180 177 177 178 180 180 184 185 183 189 194 204
264 255 252 254 261 254 246 240 242 249 252 252 252 243 220 199 166 155 129 124 122 118 116 123 127 131 134 146 152 163 173 173 175 178 182 182 187 187 184 183 181 184 186 195
244 253 256 262 268 267 266 262 249 243 251 261 261 244 236 212 182 153 146 138 134 134 135 126 129 128 135 142 151 157 166 167 174 176 183 185 186 183 182 182 182 186 191 200
241 255 265 262 261 266 266 263 259 250 252 258 258 253 246 189 152 145 151 149 146 144 140 134 133 143 150 156 161 161 167 170 173 179 185 179 182 187 188 188 185 186 192 200
256 252 262 266 265 266 258 257 260 255 252 255 257 248 218 191 166 158 155 156 149 151 150 144 139 151 157 162 167 168 165 167 171 175 176 173 179 188 193 198 193 195 197 202
252 258 261 264 267 255 260 262 262 259 258 253 248 234 226 202 149 134 145 155 159 154 147 135 136 149 168 168 165 161 164 165 168 168 170 173 180 190 191 196 198 201 201 205
242 241 250 257 256 256 261 264 263 258 256 259 232 215 210 176 154 153 143 134 136 118 110 117 145 167 164 158 156 164 176 172 175 178 179 184 187 189 193 198 202 205 206 213
226 223 235 248 254 256 262 267 287 278 252 258 237 200 197 206 210 180 138 131 117 107 104 102 132 144 142 142 154 170 177 172 176 177 180 186 191 195 199 197 198 207 214 222
224 224 229 242 251 256 278 295 283 257 256 282 206 192 194 237 97 108 109 108 103 104 102 95 105 110 113 126 140 154 154 165 167 162 170 174 174 188 187 180 187 199 212 218
238 233 233 239 246 250 299 274 276 321 22 53 59 73 86 84 92 94 93 99 106 105 98 96 97 93 102 115 127 133 139 138 130 132 140 142 151 187 175 156 181 203 210 205
248 251 254 245 245 297 8 11 8 349 34 53 70 84 92 104 109 105 100 100 105 109 104 103 99 93 100 106 120 137 117 100 105 117 129 143 158 161 159 168 179 201 206 216
266 276 277 277 252 277 322 304 303 343 7 15 31 70 78 102 108 120 118 123 124 108 113 108 109 111 108 100 106 109 107 115 122 143 154 162 171 171 150 155 184 186 208 195
288 294 281 271 268 283 286 310 327 328 327 334 341 4 58 97 113 114 123 130 127 107 98 99 109 111 108 97 94 101 105 108 127 150 162 176 176 152 132 135 120 132 75 77
273 271 263 265 282 289 294 312 322 323 316 314 331 333 329 303 146 137 118 117 110 102 100 103 113 119 108 96 85 84 91 100 121 145 153 168 169 145 145 134 82 60 113 119
Height
1464 1466 1464 1457 1453 1455 1456 1459 1462 1455 1449 1453 1459 1462 1463 1464 1469 1474 1479 1484 1489 1493 1498 1501 1505 1508 1511 1513 1515 1517 1520 1522 1523 1525 1527 1528 1530 1532 1533 1534 1535 1536 1538 1539
1462 1462 1454 1450 1449 1450 1454 1460 1460 1453 1448 1454 1457 1457 1457 1460 1463 1469 1474 1480 1485 1490 1495 1499 1503 1506 1508 1511 1513 1516 1518 1520 1522 1524 1526 1527 1529 1531 1532 1534 1535 1536 1537 1538
1460 1454 1449 1451 1451 1454 1455 1458 1458 1457 1452 1451 1458 1462 1458 1456 1459 1464 1469 1474 1480 1485 1490 1495 1499 1503 1506 1508 1511 1514 1516 1518 1520 1522 1525 1527 1528 1530 1532 1533 1534 1535 1536 1537
1453 1448 1447 1449 1450 1451 1457 1448 1450 1454 1462 1466 1460 1476 1462 1454 1457 1461 1466 1471 1476 1481 1486 1491 1496 1500 1503 1506 1508 1511 1514 1516 1518 1521 1523 1525 1526 1528 1530 1531 1532 1533 1534 1536
1450 1446 1447 1449 1447 1446 1449 1444 1448 1452 1459 1467 1463 1470 1463 1451 1457 1458 1461 1466 1471 1476 1482 1487 1492 1497 1501 1504 1506 1509 1511 1514 1516 1519 1521 1523 1525 1526 1528 1530 1531 1532 1533 1533
1444 1442 1442 1442 1442 1443 1444 1448 1451 1452 1459 1478 1467 1468 1466 1452 1452 1454 1456 1462 1467 1472 1477 1483 1489 1493 1498 1501 1504 1506 1509 1511 1514 1516 1519 1521 1523 1525 1526 1527 1528 1529 1531 1531
1449 1442 1439 1440 1444 1443 1446 1459 1474 1478 1476 1474 1456 1460 1458 1443 1442 1448 1453 1457 1463 1468 1474 1479 1485 1489 1494 1498 1501 1504 1506 1508 1511 1514 1516 1518 1520 1522 1524 1525 1527 1528 1529 1529
1456 1453 1438 1437 1442 1447 1447 1455 1477 1489 1483 1469 1455 1458 1449 1438 1440 1445 1450 1455 1460 1465 1471 1476 1481 1486 1490 1494 1498 1501 1503 1505 1508 1511 1513 1516 1518 1520 1521 1523 1524 1526 1527 1527
1449 1448 1432 1433 1436 1442 1449 1450 1447 1462 1466 1471 1463 1453 1444 1437 1441 1444 1450 1454 1459 1464 1469 1473 1478 1483 1487 1490 1494 1497 1499 1502 1505 1508 1511 1513 1515 1517 1518 1520 1522 1523 1524 1525
1442 1451 1437 1431 1435 1437 1440 1445 1451 1460 1476 1482 1467 1459 1454 1446 1444 1445 1449 1454 1458 1463 1467 1471 1475 1480 1484 1488 1491 1494 1497 1499 1502 1505 1508 1510 1512 1513 1515 1518 1519 1520 1521 1522
1439 1449 1444 1437 1440 1442 1443 1447 1451 1454 1457 1472 1478 1465 1438 1441 1444 1444 1448 1453 1458 1462 1466 1469 1473 1478 1482 1486 1489 1492 1495 1497 1500 1502 1505 1508 1509 1511 1513 1515 1516 1517 1518 1520
1439 1444 1450 1440 1431 1430 1435 1439 1445 1461 1463 1459 1465 1462 1435 1437 1440 1444 1448 1453 1457 1462 1466 1469 1472 1476 1480 1484 1487 1490 1492 1495 1497 1500 1502 1504 1507 1508 1510 1511 1513 1514 1515 1516
1441 1448 1460 1454 1443 1433 1435 1434 1436 1440 1448 1456 1464 1461 1437 1440 1442 1445 1449 1453 1458 1462 1465 1468 1471 1475 1478 1481 1484 1487 1489 1492 1495 1497 1499 1501 1503 1505 1507 1508 1510 1511 1512 1513
1445 1448 1456 1460 1447 1438 1438 1435 1435 1441 1448 1451 1451 1452 1443 1442 1444 1446 1451 1454 1458 1462 1465 1468 1471 1474 1477 1480 1482 1484 1487 1490 1492 1494 1496 1498 1500 1502 1504 1505 1506 1508 1509 1510
1443 1449 1448 1443 1436 1434 1435 1435 1432 1437 1439 1445 1443 1444 1441 1439 1442 1446 1450 1454 1458 1462 1465 1468 1470 1473 1476 1478 1480 1482 1484 1487 1489 1491 1493 1495 1497 1499 1501 1502 1503 1505 1506 1507
1441 1447 1446 1445 1437 1434 1434 1431 1431 1431 1431 1434 1437 1438 1434 1436 1440 1446 1450 1454 1458 1461 1464 1467 1470 1472 1475 1477 1478 1480 1482 1484 1486 1489 1491 1493 1494 1496 1498 1499 1500 1501 1502 1503
1442 1447 1453 1451 1440 1438 1441 1430 1428 1427 1425 1430 1436 1435 1433 1436 1441 1445 1450 1454 1458 1461 1464 1467 1469 1471 1473 1475 1477 1478 1480 1482 1484 1487 1489 1490 1492 1493 1494 1496 1497 1498 1499 1500
1445 1450 1452 1452 1451 1460 1436 1420 1421 1422 1423 1424 1428 1431 1433 1437 1441 1446 1450 1454 1457 1460 1463 1465 1468 1470 1472 1474 1475 1477 1479 1481 1482 1484 1486 1488 1489 1490 1491 1493 1494 1495 1496 1496
1439 1446 1452 1453 1454 1446 1431 1423 1421 1424 1425 1423 1426 1430 1434 1437 1442 1447 1450 1453 1456 1459 1462 1464 1466 1468 1470 1472 1473 1475 1477 1479 1480 1482 1483 1485 1486 1487 1488 1489 1490 1492 1492 1493
1436 1440 1450 1452 1456 1453 1434 1422 1423 1426 1431 1426 1427 1430 1434 1437 1443 1447 1449 1452 1455 1457 1461 1462 1464 1466 1468 1469 1471 1473 1474 1476 1477 1478 1480 1482 1483 1484 1485 1486 1488 1489 1490 1490
1439 1442 1446 1448 1448 1440 1429 1426 1427 1440 1436 1429 1429 1432 1435 1438 1441 1446 1448 1451 1454 1456 1459 1460 1462 1464 1465 1467 1468 1470 1472 1473 1474 1476 1477 1479 1480 1481 1483 1484 1485 1486 1486 1487
1437 1440 1442 1442 1447 1445 1430 1429 1433 1435 1432 1432 1433 1434 1437 1440 1442 1445 1448 1451 1453 1456 1457 1459 1460 1461 1463 1464 1466 1467 1469 1470 1472 1473 1474 1476 1477 1479 1480 1481 1481 1482 1483 1484
1431 1433 1431 1434 1438 1434 1433 1433 1434 1434 1433 1435 1436 1437 1439 1441 1444 1446 1449 1451 1453 1455 1456 1458 1459 1460 1462 1463 1464 1465 1466 1468 1469 1470 1472 1473 1475 1476 1477 1478 1479 1480 1481 1481
1429 1429 1431 1433 1432 1433 1434 1435 1436 1436 1436 1436 1438 1438 1440 1441 1444 1447 1449 1451 1453 1454 1456 1457 1459 1460 1461 1462 1463 1464 1465 1465 1466 1468 1469 1471 1472 1473 1474 1475 1477 1478 1478 1479
1433 1433 1433 1435 1434 1434 1434 1435 1436 1436 1436 1437 1438 1439 1441 1442 1444 1447 1449 1450 1451 1453 1455 1457 1458 1459 1460 1461 1462 1462 1463 1463 1464 1465 1466 1468 1469 1470 1471 1473 1474 1475 1476 1476
1433 1434 1437 1436 1435 1436 1436 1436 1436 1436 1436 1436 1437 1439 1441 1443 1444 1446 1448 1449 1450 1452 1454 1456 1457 1458 1459 1460 1461 1461 1461 1461 1462 1463 1464 1466 1468 1468 1469 1471 1472 1473 1474 1475